Hourly Data Report for July 16, 2013

All times are specified in Local Standard Time (LST). Add 1 hour to adjust for Daylight Saving Time where and when it is observed.

VICTORIA INTL A
BRITISH COLUMBIA

48°38'50.000" N
123°25'33.000" W
19.50 m
1018621
71799
YYJ

Download Data

Hourly Data (July 2013)
Hourly Data Report for July 16, 2013
Temp Definition
°C
Dew Point Temp Definition
°C
Rel Hum Definition
%
Wind Dir Definition
10's deg

Wind Spd Definition
km/h
Visibility Definition
km
Stn Press Definition
kPa
Hmdx Definition


Wind Chill Definition


Weather Definition


TIME
00:00 Legend Double Dagger 16.1 8.9 62 27 6 48.3 101.15     LegendNANA
01:00 Legend Double Dagger 17.8 8.2 53 26 10 48.3 101.14     Clear
02:00 Legend Double Dagger 17.5 8.2 54 26 9 56.3 101.11     LegendNANA
03:00 Legend Double Dagger 17.5 7.9 53 26 9 48.3 101.13     LegendNANA
04:00 Legend Double Dagger 17.0 8.8 58 27 7 48.3 101.12     Clear
05:00 Legend Double Dagger 15.9 9.9 67 28 9 48.3 101.12     LegendNANA
06:00 Legend Double Dagger 18.0 10.7 62 27 10 48.3 101.14     LegendNANA
07:00 Legend Double Dagger 19.9 10.2 53 28 10 48.3 101.14     Clear
08:00 Legend Double Dagger 22.1 10.1 46 28 14 48.3 101.13     LegendNANA
09:00 Legend Double Dagger 25.5 9.6 36 29 14 48.3 101.09 27   LegendNANA
10:00 Legend Double Dagger 27.4 9.0 31 33 13 48.3 101.07 28   Clear
11:00 Legend Double Dagger 28.1 7.1 26 1 15 48.3 101.02 28   LegendNANA
12:00 Legend Double Dagger 30.0 6.9 23 36 16 48.3 100.98 30   LegendNANA
13:00 Legend Double Dagger 29.5 5.9 22 1 15 48.3 100.96 29   Mostly Cloudy
14:00 Legend Double Dagger 28.9 7.2 25 30 13 48.3 100.95 29   LegendNANA
15:00 Legend Double Dagger 30.0 6.9 23 30 14 48.3 100.88 30   LegendNANA
16:00 Legend Double Dagger 28.4 6.8 25 30 14 48.3 100.81 28   Mostly Cloudy
17:00 Legend Double Dagger 26.5 7.8 30 30 8 48.3 100.85 27   LegendNANA
18:00 Legend Double Dagger 24.3 13.4 50 21 4 48.3 100.88 27   LegendNANA
19:00 Legend Double Dagger 24.2 11.7 45 31 4 48.3 100.81 26   Mostly Cloudy
20:00 Legend Double Dagger 23.2 10.8 45 29 9 48.3 100.78 25   LegendNANA
21:00 Legend Double Dagger 24.1 10.2 41 21 4 48.3 100.86 25   LegendNANA
22:00 Legend Double Dagger 20.2 11.8 58 28 5 48.3 100.90     Mostly Cloudy
23:00 Legend Double Dagger 20.8 12.9 60 29 18 48.3 100.90     LegendNANA

Notes on Data Quality.

Legend

  • E = Estimated
  • M = Missing
  • NA = Not Available
  • ‡ = Partner data that is not subject to review by the National Climate Archives
Date modified: